This demonstration page uses our WeatherBlox Daily Observations layout. Learn more.

41.86663, -103.66717

Hourly Observations for January 30, 2020

Temp ( °F °C ) Dew Point ( °F °C ) Humidity (%) Winds ( mph kmh ) Pressure ( in mb ) Visibility ( mi km ) Precip ( " mm )
12:10 am 00:10 Partly Cloudy with Mist and Fog 25 -4 23 -5 93 93 E 3 6 30.17 1022 1.25 2.011675 0 0
12:16 am 00:16 Partly Cloudy with Freezing Fog 25 -4 23 -5 93 93 E 5 7 30.17 1022 0.25 0.402335 0 0
12:23 am 00:23 Mostly Cloudy with Freezing Fog 23 -5 22 -5.6 96 96 E 6 9 30.17 1022 0.5 0.80467 0 0
12:32 am 00:32 Mostly Cloudy with Mist and Fog 24 -4.4 23 -5 96 96 E 6 9 30.16 1021 2.5 4.02335 0 0
12:35 am 00:35 Mostly Cloudy with Mist and Fog 25 -4 23 -5 93 93 E 6 9 30.16 1021 5 8.0467 0 0
12:53 am 00:53 Mostly Cloudy 24 -4.4 23 -5 96 96 ENE 5 7 30.04 1017 7 11.26538 0 0
1:07 am 01:07 Mostly Clear with Mist and Fog 23 -5 22 -5.6 96 96 E 5 7 30.16 1021 6 9.65604 0 0
1:32 am 01:32 Partly Cloudy with Mist and Fog 22 -5.6 21 -6.1 96 96 ESE 3 6 30.16 1021 1.5 2.41401 0 0
1:34 am 01:34 Mostly Cloudy with Freezing Fog 23 -5 22 -5.6 96 96 ESE 5 7 30.15 1021 0.5 0.80467 0 0
1:42 am 01:42 Mostly Cloudy with Freezing Fog 23 -5 21 -6 93 93 E 5 7 30.15 1021 0.25 0.402335 0 0
1:53 am 01:53 Mostly Cloudy with Freezing Fog 23 -5 22 -5.6 96 96 E 6 9 30.02 1017 0.25 0.402335 0 0
2:43 am 02:43 Mostly Cloudy with Mist and Fog 22 -5.6 21 -6.1 96 96 E 5 7 30.13 1020 1 1.60934 0 0
2:48 am 02:48 Mostly Cloudy with Mist and Fog 21 -6 19 -7 93 93 E 6 9 30.14 1021 3 4.82802 0 0
2:53 am 02:53 Mostly Cloudy with Mist and Fog 21 -6.1 20 -6.7 96 96 ENE 5 7 30 1016 6 9.65604 0 0
3:09 am 03:09 Mostly Clear 22 -5.6 21 -6.1 96 96 ENE 6 9 30.12 1020 9 14.48406 0 0
3:53 am 03:53 Clear 21 -6.1 19 -7.2 92 92 ENE 5 7 29.98 1015 10 16.0934 0 0
4:53 am 04:53 Clear 20 -6.7 19 -7.2 96 96 Calm 29.98 1015 10 16.0934 0 0
5:53 am 05:53 Clear 18 -7.8 16 -8.9 92 92 Calm 30 1016 10 16.0934 0 0
6:53 am 06:53 Clear 20 -6.7 17 -8.3 89 89 NNW 7 11 29.99 1016 10 16.0934 0 0
7:53 am 07:53 Sunny 24 -4.4 22 -5.6 91 91 NNW 6 9 30.01 1016 10 16.0934 0 0
8:53 am 08:53 Sunny 29 -1.7 27 -2.8 92 92 WNW 8 13 29.99 1016 10 16.0934 0 0
9:53 am 09:53 Sunny 32 0 29 -1.7 88 88 WNW 8 13 29.99 1016 10 16.0934 0 0
10:53 am 10:53 Mostly Cloudy 37 2.8 28 -2.2 70 70 WNW 17 28 30.01 1016 10 16.0934 0 0
11:53 am 11:53 Cloudy 39 3.9 27 -2.8 62 62 WNW 18 30 30.01 1016 10 16.0934 0 0
12:42 pm 12:42 Mostly Cloudy 39 3.9 30 -1.1 70 70 NW 23 37 30.01 1016 10 16.0934 0 0
12:53 pm 12:53 Cloudy 38 3.3 32 0 79 79 WNW 24 39 30.03 1017 10 16.0934 0 0
1:09 pm 13:09 Cloudy with Light Rain 37 2.8 33 0.6 86 86 WNW 21 33 30.03 1017 10 16.0934 0.001 0.001
1:53 pm 13:53 Windy with Snow Likely 37 2.8 31 -0.6 79 79 NNW 21 33 30.05 1018 7 11.26538 0.001 0.001
2:53 pm 14:53 Mostly Cloudy 39 3.9 30 -1.1 70 70 NW 23 37 30.06 1018 10 16.0934 0.001 0.001
3:53 pm 15:53 Cloudy 39 3.9 29 -1.7 67 67 NW 24 39 30.09 1019 10 16.0934 0 0
4:53 pm 16:53 Cloudy 38 3.3 28 -2.2 68 68 NW 29 46 30.11 1020 10 16.0934 0 0
5:47 pm 17:47 Windy with Snow Likely 36 2 30 -1 81 81 NW 29 46 30.15 1021 2.5 4.02335 0.001 0.001
5:53 pm 17:53 Windy with Snow Likely 34 1.1 30 -1.1 85 85 NW 28 44 30.18 1022 1.25 2.011675 0.001 0.001
6:09 pm 18:09 Very Windy with Snow Likely 33 0.6 28 -2.2 82 82 NNW 39 63 30.18 1022 3 4.82802 0.01 0.254
6:28 pm 18:28 Cloudy with Light Wintry Mix 34 1 27 -3 75 75 NNW 35 56 30.18 1022 10 16.0934 0 0
6:53 pm 18:53 Cloudy 34 1.1 24 -4.4 67 67 NNW 29 46 30.2 1023 10 16.0934 0.01 0.254
7:53 pm 19:53 Cloudy 34 1.1 24 -4.4 67 67 NW 23 37 30.21 1023 10 16.0934 0 0
8:53 pm 20:53 Clear 31 -0.6 22 -5.6 69 69 WNW 14 22 30.21 1023 10 16.0934 0 0
9:53 pm 21:53 Clear 31 -0.6 22 -5.6 69 69 W 12 19 30.21 1023 10 16.0934 0 0
10:53 pm 22:53 Clear 30 -1.1 21 -6.1 69 69 WNW 18 30 30.19 1022 10 16.0934 0 0
11:53 pm 23:53 Clear 29 -1.7 20 -6.7 69 69 WNW 16 26 30.19 1023 10 16.0934 0 0

Powered by AerisWeather